CW0343 Weather Reports


Display with metric or nautical units.
time (UTC)temp
F
wind
direction
speed
MPH
gust
MPH
rain 1hr
in
rain 24hr
in
rain mn
in
humidity
%
barometer
mb
20260902141305 60 124 3.0 5.0 0.00 0.00 0.00 85 1022.2
20260902140805 61 124 3.0 9.0 0.00 0.00 0.00 85 1022.2
20260902140305 61 116 3.0 8.0 0.00 0.00 0.00 85 1022.2
20260902135805 61 123 2.0 8.0 0.00 0.00 0.00 85 1022.2
20260902135307 61 116 3.0 6.0 0.00 0.00 0.00 85 1022.3
20260902134804 61 112 2.0 8.0 0.00 0.00 0.00 84 1022.3
20260902134304 61 115 2.0 6.0 0.00 0.00 0.00 84 1022.4
20260902133804 61 111 3.0 8.0 0.00 0.00 0.00 84 1022.4
20260902132306 61 124 3.0 7.0 0.00 0.00 0.00 84 1022.5
20260902131804 61 120 3.0 7.0 0.00 0.00 0.00 84 1022.5
20260902131304 61 114 3.0 7.0 0.00 0.00 0.00 84 1022.6
20260902130804 61 112 2.0 7.0 0.00 0.00 0.00 84 1022.6
20260902130304 61 113 5.0 8.0 0.00 0.00 0.00 84 1022.7
20260902125804 61 116 3.0 6.0 0.00 0.00 0.00 84 1022.7
20260902125306 61 112 3.0 6.0 0.00 0.00 0.00 84 1022.7
20260902124804 61 117 1.0 7.0 0.00 0.00 0.00 84 1022.7
20260902124305 61 120 3.0 7.0 0.00 0.00 0.00 84 1022.6
20260902123804 61 121 4.0 7.0 0.00 0.00 0.00 84 1022.7
20260902123304 61 123 3.0 8.0 0.00 0.00 0.00 84 1022.7
20260902122804 61 114 4.0 9.0 0.00 0.00 0.00 84 1022.7
20260902122305 62 109 3.0 8.0 0.00 0.00 0.00 84 1022.7
20260902121804 62 115 3.0 8.0 0.00 0.00 0.00 84 1022.7
20260902121305 62 116 4.0 8.0 0.00 0.00 0.00 84 1022.7
20260902120305 62 115 6.0 10.0 0.00 0.00 0.00 83 1022.6
20260902115805 62 144 4.0 12.0 0.00 0.00 0.00 83 1022.5
20260902115307 62 106 5.0 7.0 0.00 0.00 0.00 83 1022.5
20260902114804 62 110 5.0 9.0 0.00 0.00 0.00 83 1022.4
20260902114304 62 129 5.0 9.0 0.00 0.00 0.00 83 1022.5
20260902113804 62 120 5.0 8.0 0.00 0.00 0.00 83 1022.4
20260902113304 62 114 3.0 8.0 0.00 0.00 0.00 83 1022.4
20260902112805 62 109 6.0 8.0 0.00 0.00 0.00 83 1022.3
20260902112306 62 111 3.0 6.0 0.00 0.00 0.00 83 1022.3
20260902111305 62 118 4.0 7.0 0.00 0.00 0.00 83 1022.2
20260902110805 62 118 3.0 7.0 0.00 0.00 0.00 82 1022.2
20260902105306 62 76 2.0 5.0 0.00 0.00 0.00 82 1022.1
20260902104805 63 71 2.0 5.0 0.00 0.00 0.00 82 1022.1
20260902104304 63 71 1.0 3.0 0.00 0.00 0.00 82 1022.1
20260902103805 63 71 2.0 5.0 0.00 0.00 0.00 81 1022.1
20260902103305 63 67 2.0 3.0 0.00 0.00 0.00 81 1022.0
20260902102307 63 66 2.0 5.0 0.00 0.00 0.00 81 1022.0
20260902101804 63 65 2.0 3.0 0.00 0.00 0.00 81 1022.0
20260902101304 64 63 2.0 3.0 0.00 0.00 0.00 81 1022.1
20260902100804 64 63 2.0 3.0 0.00 0.00 0.00 81 1022.0
20260902100305 64 63 2.0 3.0 0.00 0.00 0.00 80 1021.9
20260902095804 64 62 1.0 5.0 0.00 0.00 0.00 80 1021.9
20260902095306 64 62 2.0 3.0 0.00 0.00 0.00 80 1021.8
20260902094804 64 62 2.0 3.0 0.00 0.00 0.00 80 1021.8
20260902094305 65 62 2.0 3.0 0.00 0.00 0.00 80 1021.7
20260902093805 65 62 2.0 3.0 0.00 0.00 0.00 80 1021.6
20260902092805 65 62 1.0 2.0 0.00 0.00 0.00 80 1021.5
20260902092305 65 62 1.0 3.0 0.00 0.00 0.00 80 1021.4
20260902091804 66 62 2.0 3.0 0.00 0.00 0.00 80 1021.4
20260902091305 66 61 2.0 5.0 0.00 0.00 0.00 80 1021.3
20260902090804 66 61 2.0 5.0 0.00 0.00 0.00 79 1021.3
20260902090304 66 63 2.0 3.0 0.00 0.00 0.00 79 1021.2
20260902085804 66 63 3.0 6.0 0.00 0.00 0.00 79 1021.2
20260902085306 67 63 3.0 8.0 0.00 0.00 0.00 79 1021.1
20260902084804 67 69 4.0 8.0 0.00 0.00 0.00 79 1021.0
20260902084304 67 73 3.0 7.0 0.00 0.00 0.00 78 1021.0
20260902083805 67 73 6.0 9.0 0.00 0.00 0.00 78 1021.0
20260902083305 68 81 6.0 8.0 0.00 0.00 0.00 78 1021.0
20260902082805 68 88 5.0 7.0 0.00 0.00 0.00 77 1021.0
20260902082309 68 89 4.0 7.0 0.00 0.00 0.00 76 1021.0
20260902081805 68 92 5.0 8.0 0.00 0.00 0.00 76 1020.9
20260902081305 68 92 5.0 8.0 0.00 0.00 0.00 76 1020.8
20260902080804 68 94 5.0 7.0 0.00 0.00 0.00 75 1020.8
20260902080304 69 100 4.0 10.0 0.00 0.00 0.00 75 1020.7
20260902075804 69 87 5.0 9.0 0.00 0.00 0.00 76 1020.7
20260902075306 69 77 4.0 8.0 0.00 0.00 0.00 76 1020.6
20260902074805 69 70 5.0 9.0 0.00 0.00 0.00 77 1020.6
20260902074304 69 84 4.0 8.0 0.00 0.00 0.00 77 1020.6
20260902073805 69 94 5.0 7.0 0.00 0.00 0.00 77 1020.6
20260902073305 69 104 7.0 12.0 0.00 0.00 0.00 76 1020.6
20260902072805 70 107 6.0 10.0 0.00 0.00 0.00 76 1020.6
20260902072309 70 77 7.0 10.0 0.00 0.00 0.00 75 1020.6
20260902071306 71 94 9.0 13.0 0.00 0.00 0.00 74 1020.4
20260902070805 71 136 7.0 13.0 0.00 0.00 0.00 74 1020.4
20260902070306 71 139 7.0 12.0 0.00 0.00 0.00 73 1020.3
20260902065804 71 124 8.0 12.0 0.00 0.00 0.00 73 1020.3
20260902065307 72 119 7.0 13.0 0.00 0.00 0.00 73 1020.3
20260902064805 72 132 9.0 12.0 0.00 0.00 0.00 72 1020.2
20260902063805 72 110 9.0 12.0 0.00 0.00 0.00 71 1020.1
20260902063304 72 81 6.0 10.0 0.00 0.00 0.00 71 1020.1
20260902062306 73 118 5.0 12.0 0.00 0.00 0.00 71 1020.1
20260902061804 73 119 6.0 9.0 0.00 0.00 0.00 71 1020.0
20260902061304 72 89 7.0 13.0 0.00 0.00 0.00 72 1020.0
20260902060804 72 81 7.0 13.0 0.00 0.00 0.00 73 1019.8
20260902055804 72 75 7.0 12.0 0.00 0.00 0.00 73 1019.9
20260902055307 72 92 7.0 12.0 0.00 0.00 0.00 73 1019.9
20260902054804 73 84 9.0 13.0 0.00 0.00 0.00 72 1020.0
20260902054304 73 125 8.0 13.0 0.00 0.00 0.00 70 1020.0
20260902052804 73 92 9.0 12.0 0.00 0.00 0.00 71 1019.9
20260902052306 73 75 6.0 15.0 0.00 0.00 0.00 69 1019.9
20260902051804 73 96 10.0 14.0 0.00 0.00 0.00 70 1019.9
20260902051305 73 100 9.0 15.0 0.00 0.00 0.00 71 1020.0
20260902050304 73 99 12.0 16.0 0.00 0.00 0.00 70 1020.0
20260902045805 73 121 8.0 12.0 0.00 0.00 0.00 71 1019.9
20260902045306 73 103 7.0 13.0 0.00 0.00 0.00 72 1020.0
20260902044805 73 91 10.0 16.0 0.00 0.00 0.00 72 1020.1
20260902044304 74 79 7.0 13.0 0.00 0.00 0.00 71 1020.1
20260902043804 74 90 9.0 14.0 0.00 0.00 0.00 69 1020.2
20260902043304 75 126 9.0 13.0 0.00 0.00 0.00 70 1020.3
20260902042804 75 56 7.0 12.0 0.00 0.00 0.00 69 1020.3
20260902042309 75 63 9.0 14.0 0.00 0.00 0.00 71 1020.4
20260902041804 74 68 7.0 12.0 0.00 0.00 0.00 72 1020.5
20260902041304 74 77 7.0 12.0 0.00 0.00 0.00 72 1020.5
20260902040804 73 91 7.0 12.0 0.00 0.00 0.00 73 1020.6
20260902040304 73 104 5.0 10.0 0.00 0.00 0.00 74 1020.7
20260902035305 74 108 6.0 12.0 0.00 0.00 0.00 71 1020.9
20260902034804 74 94 3.0 12.0 0.00 0.00 0.00 70 1020.9
20260902033805 73 149 7.0 12.0 0.00 0.00 0.00 70 1020.9
20260902032804 73 55 3.0 9.0 0.00 0.00 0.00 71 1021.0
20260902032306 73 72 6.0 12.0 0.00 0.00 0.00 70 1021.1
20260902031804 74 80 5.0 9.0 0.00 0.00 0.00 69 1021.2
20260902031304 74 84 6.0 9.0 0.00 0.00 0.00 68 1021.2
20260902030804 74 65 2.0 6.0 0.00 0.00 0.00 67 1021.2
20260902030305 74 48 3.0 7.0 0.00 0.00 0.00 67 1021.2
20260902025804 74 56 5.0 12.0 0.00 0.00 0.00 67 1021.3
20260902025306 74 77 1.0 5.0 0.00 0.00 0.00 65 1021.4
20260902024804 75 93 9.0 12.0 0.00 0.00 0.00 65 1021.5
20260902024305 74 93 5.0 10.0 0.00 0.00 0.00 66 1021.6
20260902023804 74 84 2.0 9.0 0.00 0.00 0.00 66 1021.6
20260902023304 73 92 5.0 8.0 0.00 0.00 0.00 67 1021.6
20260902022804 73 101 6.0 12.0 0.00 0.00 0.00 66 1021.9
20260902022306 73 119 3.0 9.0 0.00 0.00 0.00 67 1022.0
20260902021804 73 129 6.0 10.0 0.00 0.00 0.00 67 1022.1
20260902021305 73 115 6.0 13.0 0.00 0.00 0.00 67 1022.2
20260902020804 73 124 6.0 10.0 0.00 0.00 0.00 69 1022.3
20260902020305 72 64 5.0 10.0 0.00 0.00 0.00 68 1022.4
20260902015805 72 108 3.0 8.0 0.00 0.00 0.00 69 1022.6
20260902015306 72 125 3.0 10.0 0.00 0.00 0.00 69 1022.7
20260902014804 72 105 7.0 14.0 0.00 0.00 0.00 69 1022.9
20260902014305 73 98 7.0 10.0 0.00 0.00 0.00 69 1022.9
20260902013805 73 93 6.0 12.0 0.00 0.00 0.00 69 1023.0
20260902012309 72 152 6.0 9.0 0.00 0.00 0.00 69 1023.2
20260902011804 72 111 7.0 12.0 0.00 0.00 0.00 69 1023.3
20260902011306 72 110 8.0 12.0 0.00 0.00 0.00 69 1023.3
20260902010804 71 105 10.0 16.0 0.00 0.00 0.00 69 1023.4
20260902010304 71 116 10.0 12.0 0.00 0.00 0.00 69 1023.4
20260902005306 72 118 8.0 16.0 0.00 0.00 0.00 69 1023.6
20260902004804 71 133 7.0 10.0 0.00 0.00 0.00 69 1023.6
20260902003804 71 123 7.0 15.0 0.00 0.00 0.00 69 1023.7
20260902003305 71 137 6.0 13.0 0.00 0.00 0.00 69 1023.8
20260902002306 71 127 7.0 10.0 0.00 0.00 0.00 69 1023.9
20260902001804 71 129 7.0 13.0 0.00 0.00 0.00 69 1024.0
20260902001304 71 130 6.0 10.0 0.00 0.00 0.00 70 1024.0
20260902000805 71 148 7.0 12.0 0.00 0.00 0.00 70 1024.1
20260902000304 70 103 7.0 12.0 0.00 0.00 0.00 70 1024.1
20260901235804 70 106 6.0 9.0 0.00 0.00 0.00 70 1024.0
20260901235307 70 108 7.0 12.0 0.00 0.00 0.00 70 1024.1
20260901234805 70 119 9.0 14.0 0.00 0.00 0.00 70 1024.1
20260901233805 71 112 12.0 18.0 0.00 0.00 0.00 70 1024.0
20260901233304 70 117 8.0 12.0 0.00 0.00 0.00 73 1024.1
20260901232804 70 115 6.0 10.0 0.00 0.00 0.00 72 1024.1
20260901231805 71 119 8.0 16.0 0.00 0.00 0.00 71 1024.2
20260901231305 71 117 9.0 13.0 0.00 0.00 0.00 71 1024.1
20260901230304 70 133 7.0 14.0 0.00 0.00 0.00 73 1024.0
20260901225306 69 118 5.0 15.0 0.00 0.00 0.00 82 1024.0
20260901224804 60 3 0.0 0.0 0.00 0.00 0.00 85 1023.9
20260901224305 60 3 0.0 0.0 0.00 0.00 0.00 85 1024.0
20260901223805 60 3 0.0 0.0 0.00 0.00 0.00 85 1023.9
20260901223304 60 3 0.0 0.0 0.00 0.00 0.00 85 1023.9
20260901222806 60 3 0.0 0.0 0.00 0.00 0.00 85 1023.9
20260901220804 60 3 0.0 0.0 0.00 0.00 0.00 85 1023.7
20260901220304 60 3 0.0 0.0 0.00 0.00 0.00 85 1023.6
20260901215804 60 3 0.0 0.0 0.00 0.00 0.00 85 1023.6
20260901215306 60 3 0.0 0.0 0.00 0.00 0.00 85 1023.5
20260901214804 60 3 0.0 0.0 0.00 0.00 0.00 85 1023.4
20260901214305 60 3 0.0 0.0 0.00 0.00 0.00 85 1023.3
20260901213304 60 3 0.0 0.0 0.00 0.00 0.00 85 1023.3
20260901212805 60 3 0.0 0.0 0.00 0.00 0.00 85 1023.2
20260901212306 60 3 0.0 0.0 0.00 0.00 0.00 85 1023.2
20260901211804 60 3 0.0 0.0 0.00 0.00 0.00 85 1023.2
20260901210804 60 3 0.0 0.0 0.00 0.00 0.00 85 1023.0
20260901210305 60 3 0.0 0.0 0.00 0.00 0.00 85 1023.0
20260901205804 60 3 0.0 0.0 0.00 0.00 0.00 85 1022.9
20260901205306 60 3 0.0 0.0 0.00 0.00 0.00 85 1022.8
20260901204305 60 3 0.0 0.0 0.00 0.00 0.00 85 1022.8
20260901203805 60 3 0.0 0.0 0.00 0.00 0.00 85 1022.6
20260901203304 60 3 0.0 0.0 0.00 0.00 0.00 85 1022.6
20260901202804 60 3 0.0 0.0 0.00 0.00 0.00 85 1022.5
20260901201804 60 4 0.0 0.0 0.00 0.00 0.00 85 1022.5
20260901200806 60 3 0.0 0.0 0.00 0.00 0.00 85 1022.4
20260901200304 60 3 0.0 0.0 0.00 0.00 0.00 85 1022.4
20260901195306 60 3 0.0 0.0 0.00 0.00 0.00 85 1022.3
20260901193804 60 3 0.0 0.0 0.00 0.00 0.00 85 1022.2
20260901193304 60 2 0.0 0.0 0.00 0.00 0.00 85 1022.2
20260901192805 60 3 0.0 0.0 0.00 0.00 0.00 85 1022.2
20260901191804 60 3 0.0 0.0 0.00 0.00 0.00 85 1022.2
20260901190804 60 3 0.0 0.0 0.00 0.00 0.00 85 1022.0
20260901190304 60 3 0.0 0.0 0.00 0.00 0.00 85 1021.9
20260901185804 60 3 0.0 0.0 0.00 0.00 0.00 85 1021.9
20260901184805 60 3 0.0 0.0 0.00 0.00 0.00 85 1021.8
20260901184304 60 3 0.0 0.0 0.00 0.00 0.00 85 1021.8
20260901183804 60 3 0.0 0.0 0.00 0.00 0.00 85 1021.9
20260901183304 60 3 0.0 0.0 0.00 0.00 0.00 85 1021.8
20260901182804 60 3 0.0 0.0 0.00 0.00 0.00 85 1021.9
20260901182305 60 3 0.0 0.0 0.00 0.00 0.00 85 1021.9
20260901181804 60 3 0.0 0.0 0.00 0.00 0.00 85 1022.0
20260901181304 60 3 0.0 0.0 0.00 0.00 0.00 85 1022.0
20260901180304 60 3 0.0 0.0 0.00 0.00 0.00 85 1022.1
20260901175804 60 3 0.0 0.0 0.00 0.00 0.00 85 1022.1
20260901175306 60 3 0.0 0.0 0.00 0.00 0.00 85 1022.1
20260901174805 60 3 0.0 0.0 0.00 0.00 0.00 85 1022.1
20260901174304 60 3 0.0 0.0 0.00 0.00 0.00 85 1022.1
20260901173804 60 3 0.0 0.0 0.00 0.00 0.00 85 1022.1
20260901173304 60 3 0.0 0.0 0.00 0.00 0.00 85 1022.1
20260901172305 60 3 0.0 0.0 0.00 0.00 0.00 85 1022.0
20260901171804 60 2 0.0 0.0 0.00 0.00 0.00 85 1022.1
20260901171304 60 3 0.0 0.0 0.00 0.00 0.00 85 1022.1
20260901170805 60 3 0.0 0.0 0.00 0.00 0.00 85 1022.1
20260901170304 60 3 0.0 0.0 0.00 0.00 0.00 85 1022.1
20260901164804 60 3 0.0 0.0 0.00 0.00 0.00 85 1022.2
20260901164305 60 3 0.0 0.0 0.00 0.00 0.00 85 1022.2
20260901163805 60 3 0.0 0.0 0.00 0.00 0.00 85 1022.2
20260901162804 60 3 0.0 0.0 0.00 0.00 0.00 85 1022.3
20260901162306 60 3 0.0 0.0 0.00 0.00 0.00 85 1022.5
20260901161804 60 3 0.0 0.0 0.00 0.00 0.00 85 1022.5
20260901161304 60 3 0.0 0.0 0.00 0.00 0.00 85 1022.5
20260901160804 60 3 0.0 0.0 0.00 0.00 0.00 85 1022.5
20260901160304 60 3 0.0 0.0 0.00 0.01 0.00 85 1022.5
20260901155805 60 3 0.0 0.0 0.00 0.01 0.00 85 1022.6
20260901154804 60 3 0.0 0.0 0.00 0.01 0.00 85 1022.7
20260901154304 60 3 0.0 0.0 0.00 0.01 0.00 85 1022.7
20260901153805 60 3 0.0 0.0 0.00 0.01 0.00 85 1022.8
20260901153304 60 3 0.0 0.0 0.00 0.01 0.00 85 1022.8
20260901152306 60 3 0.0 1.0 0.00 0.01 0.00 85 1022.9
20260901151304 60 148 1.0 2.0 0.00 0.01 0.00 85 1023.2
20260901150805 60 148 1.0 2.0 0.00 0.02 0.00 85 1023.1
20260901145805 60 148 0.0 2.0 0.00 0.02 0.00 85 1023.2
20260901145306 60 148 0.0 2.0 0.00 0.02 0.00 85 1023.2
20260901144805 59 148 0.0 3.0 0.00 0.02 0.00 85 1023.2
20260901144305 59 148 1.0 3.0 0.00 0.02 0.00 85 1023.3
20260901143804 59 149 1.0 2.0 0.00 0.02 0.00 84 1023.3
20260901143305 59 149 0.0 0.0 0.00 0.02 0.00 84 1023.3
20260901142306 59 149 0.0 0.0 0.00 0.02 0.00 84 1023.3
20260901141804 59 149 0.0 0.0 0.00 0.02 0.00 84 1023.3